Location: Newark
(45.9456°N, 15.4064°E)
Time: 13:51:03
(UTC+00:00)

Altair - All Passes

Search period start: 17 January 2020 00:00
Search period end: 27 January 2020 00:00
Orbit: 1502 x 1682 km, 47.2° (Epoch: 17 January)

Date Brightness Start Highest point End Pass type
(mag) Time Alt. Az. Time Alt. Az. Time Alt. Az.
17 Jan - 07:09:58 10° SSE 07:14:57 15° ESE 07:19:56 10° E daylight
17 Jan - 09:08:21 10° SSW 09:17:52 48° SE 09:27:24 10° ENE daylight
17 Jan - 11:12:03 10° WSW 11:22:17 88° SSE 11:32:22 10° ENE daylight
17 Jan - 13:17:18 10° W 13:27:32 86° N 13:37:27 10° E daylight
17 Jan - 15:22:25 10° WNW 15:32:14 61° SSW 15:41:41 10° SE daylight
17 Jan - 17:28:32 10° W 17:35:29 22° SW 17:42:17 10° S visible
18 Jan - 06:45:54 10° SE 06:49:56 13° ESE 06:53:59 10° E daylight
18 Jan - 08:43:22 10° SSW 08:52:45 45° SE 09:02:09 10° ENE daylight
18 Jan - 10:46:50 10° WSW 10:57:04 86° SSE 11:07:10 10° ENE daylight
18 Jan - 12:52:03 10° W 13:02:18 85° N 13:12:15 10° E daylight
18 Jan - 14:57:11 10° WNW 15:07:05 64° SSW 15:16:38 10° SE daylight
18 Jan - 17:03:05 10° W 17:10:27 24° SW 17:17:40 10° S visible
19 Jan - 06:22:15 10° SE 06:24:57 11° ESE 06:27:38 10° ESE daylight
19 Jan - 08:18:23 10° SSW 08:27:38 42° SE 08:36:54 10° ENE daylight
19 Jan - 10:21:39 10° WSW 10:31:51 83° SSE 10:41:58 10° ENE daylight
19 Jan - 12:26:48 10° W 12:37:03 84° N 12:47:03 10° E daylight
19 Jan - 14:31:57 10° WNW 14:41:56 67° SSW 14:51:33 10° SE daylight
19 Jan - 16:37:40 10° WNW 16:45:25 27° SW 16:52:59 10° S visible
20 Jan - 07:53:27 10° SSW 08:02:31 40° SE 08:11:38 10° ENE daylight
20 Jan - 09:56:28 10° WSW 10:06:38 81° SSE 10:16:45 10° ENE daylight
20 Jan - 12:01:34 10° W 12:11:48 84° N 12:21:50 10° E daylight
20 Jan - 14:06:43 10° WNW 14:16:46 71° SSW 14:26:28 10° SE daylight
20 Jan - 16:12:17 10° WNW 16:20:22 29° SW 16:28:15 10° S visible
21 Jan - 07:28:33 10° SSW 07:37:25 37° SE 07:46:21 10° ENE daylight
21 Jan - 09:31:17 10° WSW 09:41:25 78° SSE 09:51:33 10° ENE daylight
21 Jan - 11:36:19 10° W 11:46:33 83° N 11:56:37 10° E daylight
21 Jan - 13:41:29 10° WNW 13:51:35 74° SSW 14:01:21 10° ESE daylight
21 Jan - 15:46:55 10° WNW 15:55:19 32° SW 16:03:28 10° S daylight
22 Jan - 07:03:41 10° SSW 07:12:19 34° SE 07:21:02 10° ENE daylight
22 Jan - 09:06:07 10° WSW 09:16:13 76° SSE 09:26:20 10° ENE daylight
22 Jan - 11:11:04 10° W 11:21:19 83° N 11:31:24 10° E daylight
22 Jan - 13:16:15 10° WNW 13:26:24 77° SSW 13:36:14 10° ESE daylight
22 Jan - 15:21:36 10° WNW 15:30:15 34° SW 15:38:40 10° SSE daylight
23 Jan - 06:38:51 10° S 06:47:15 32° SE 06:55:43 10° ENE daylight
23 Jan - 08:40:58 10° SW 08:51:01 73° SSE 09:01:08 10° ENE daylight
23 Jan - 10:45:49 10° W 10:56:04 83° N 11:06:12 10° E daylight
23 Jan - 12:51:01 10° WNW 13:01:12 79° SSW 13:11:06 10° ESE daylight
23 Jan - 14:56:17 10° WNW 15:05:10 37° SW 15:13:48 10° SSE daylight
24 Jan - 06:14:04 10° S 06:22:10 29° SE 06:30:22 10° ENE daylight
24 Jan - 08:15:50 10° SW 08:25:50 70° SSE 08:35:55 10° ENE daylight
24 Jan - 10:20:34 10° W 10:30:49 84° N 10:40:58 10° E daylight
24 Jan - 12:25:47 10° WNW 12:36:00 82° SSW 12:45:57 10° ESE daylight
24 Jan - 14:31:00 10° WNW 14:40:05 40° SW 14:48:55 10° SSE daylight
25 Jan - 05:49:19 10° S 05:57:07 27° SE 06:05:00 10° ENE visible
25 Jan - 07:50:43 10° SW 08:00:39 67° SSE 08:10:42 10° ENE daylight
25 Jan - 09:55:20 10° W 10:05:34 84° N 10:15:44 10° E daylight
25 Jan - 12:00:33 10° WNW 12:10:47 84° SSW 12:20:47 10° ESE daylight
25 Jan - 14:05:43 10° WNW 14:14:59 43° SW 14:24:00 10° SSE daylight
25 Jan - 16:14:50 10° WSW 16:17:36 11° WSW 16:20:22 10° SW visible
26 Jan - 05:24:38 10° S 05:32:04 24° SE 05:39:35 10° E visible
26 Jan - 07:25:37 10° SW 07:35:28 63° SSE 07:45:28 10° ENE daylight
26 Jan - 09:30:06 10° W 09:40:19 85° N 09:50:31 10° E daylight
26 Jan - 11:35:19 10° WNW 11:45:34 87° SSW 11:55:37 10° ESE daylight
26 Jan - 13:40:26 10° WNW 13:49:53 46° SW 13:59:04 10° SSE daylight
26 Jan - 15:48:32 10° W 15:52:37 13° WSW 15:56:40 10° SSW daylight
